Theta_e
303 301 298 297 296 293 292 291 295 290 291 294 292 297 293 291 291 290 291 291 292 292 290 290 291 292 292 290 289 290 288 290 290 289 283 279 285 290 290 292 289 289 289 290
303 301 299 297 295 293 292 294 292 291 291 295 294 290 291 291 291 291 291 291 291 289 290 291 290 289 289 289 289 289 287 289 289 289 284 283 286 287 286 286 286 288 290 290
302 300 298 296 295 293 292 292 293 292 290 289 293 291 292 292 290 290 290 290 290 289 289 289 291 289 289 289 289 289 289 290 289 290 290 290 287 287 283 286 289 289 289 289
301 300 298 296 294 292 292 292 292 291 293 291 290 291 291 291 292 290 290 290 290 290 290 289 289 289 289 289 289 290 290 291 290 289 289 290 290 289 289 284 287 288 288 288
301 299 297 296 293 291 291 292 292 289 289 288 290 291 291 291 291 291 291 290 290 288 290 291 289 289 289 288 288 288 288 288 288 288 287 287 289 289 289 288 286 287 288 287
300 298 296 293 291 293 291 289 289 292 291 290 291 291 291 291 291 289 289 289 289 289 289 289 289 288 288 288 288 288 288 288 287 287 286 287 287 285 284 283 279 278 284 280
299 295 293 292 291 291 290 290 290 293 293 291 291 290 290 290 290 289 289 289 289 288 287 287 287 287 288 288 287 287 286 286 286 287 285 285 282 277 278 279 274 274 275 273
295 293 293 291 291 290 291 290 289 291 291 290 290 289 289 288 287 289 288 287 286 286 287 286 285 284 284 284 282 283 284 285 285 286 285 284 279 274 274 274 276 272 273 273
293 292 292 291 291 290 289 288 288 287 289 284 282 287 286 287 287 286 286 283 282 285 286 285 283 283 282 282 282 279 279 279 285 284 284 283 275 273 273 274 277 273 272 272
292 292 292 291 291 289 289 288 287 284 282 279 280 284 284 283 283 285 283 281 283 284 284 283 283 283 281 282 282 279 280 278 280 282 283 278 272 272 273 276 275 272 272 272
292 291 291 291 291 289 289 282 285 283 279 277 277 277 279 280 280 283 280 281 282 283 283 283 282 283 281 280 274 274 276 277 279 276 278 280 271 273 273 271 271 271 271 271
291 291 291 292 289 289 288 281 280 280 278 277 275 274 274 276 277 279 279 280 280 282 282 281 281 281 278 276 280 270 275 272 274 273 275 270 270 270 270 270 270 270 271 271
290 290 292 291 289 288 287 280 279 278 278 276 277 276 274 274 275 276 279 278 278 278 278 279 278 278 275 278 276 272 269 268 270 270 270 270 269 270 270 270 270 270 270 270
290 292 289 287 286 285 285 281 279 279 278 277 274 274 274 273 273 274 275 276 276 277 277 276 276 276 272 272 270 271 269 267 268 269 269 268 269 269 269 269 269 269 268 268
289 288 287 285 284 283 281 279 278 279 280 277 275 273 272 273 273 273 273 274 275 275 274 273 272 271 270 269 268 267 266 267 268 270 267 267 268 268 267 267 268 268 267 267
287 285 284 283 282 282 281 280 279 277 277 278 275 273 271 272 273 273 272 272 272 272 271 270 269 268 270 269 269 266 265 266 266 267 267 267 266 266 265 266 266 266 266 266
283 282 280 281 280 281 276 277 276 277 277 277 276 274 271 270 272 273 273 271 271 270 269 269 269 269 269 267 268 266 266 265 265 265 264 266 266 266 265 264 263 264 264 264
281 280 278 277 276 275 274 272 276 275 272 271 271 271 271 269 272 272 271 271 270 269 269 269 268 268 268 267 266 264 264 264 265 265 263 263 263 262 262 264 263 264 264 264
279 277 277 276 274 273 273 272 273 273 271 269 268 268 270 269 271 270 270 269 271 269 269 268 268 267 267 267 266 265 265 265 265 265 263 263 263 264 265 265 265 265 265 265
276 276 274 273 270 271 272 272 270 268 268 268 268 268 269 268 269 270 269 268 268 269 267 267 267 267 265 262 263 263 264 263 262 263 266 266 266 267 266 266 266 265 265 265
275 272 271 269 270 270 268 267 268 267 267 267 267 266 267 268 268 268 263 266 266 268 267 266 266 267 266 265 264 263 263 263 263 263 264 265 265 266 266 266 266 266 266 266
273 272 269 269 266 268 266 264 266 266 266 267 267 267 267 267 266 267 264 267 266 268 264 266 268 268 264 264 263 264 264 265 265 266 266 266 266 266 266 266 266 266 266 266
273 269 264 268 264 265 265 264 266 266 266 266 266 266 265 265 266 263 264 267 266 263 265 268 268 267 265 265 265 266 266 265 266 266 266 266 266 266 266 266 266 266 266 266
265 266 265 264 265 266 265 265 265 266 266 266 266 264 264 264 265 261 266 263 261 267 267 269 269 267 267 267 266 266 266 266 266 266 266 266 265 265 265 265 265 265 265 265
263 265 264 265 265 265 264 264 265 266 266 265 265 264 263 263 264 263 264 267 268 267 270 270 269 269 268 268 268 267 267 267 266 266 265 265 265 264 264 264 264 265 265 265
264 263 266 265 266 266 265 264 265 265 265 263 263 263 265 263 261 266 265 266 269 270 268 271 271 269 268 268 268 267 267 266 266 266 266 266 265 265 265 265 264 264 265 264
264 266 266 265 265 265 265 264 265 264 265 265 263 267 265 262 267 268 264 268 271 272 270 270 269 269 269 268 268 267 267 267 267 267 267 267 266 266 266 265 265 265 264 264
Wind_Speed
28 27 21 16 11 8 7 4 3 2 3 2 1 2 3 2 4 1 2 1 4 5 7 5 7 7 3 7 9 5 2 2 8 13 3 2 2 11 15 10 11 9 11 16
34 28 24 20 17 12 12 3 1 2 2 4 4 2 2 2 4 4 5 5 4 3 6 4 8 5 2 9 8 6 7 4 6 6 2 1 6 6 7 7 6 19 16 15
36 30 25 20 14 14 7 3 2 1 1 0 3 5 4 4 2 3 3 3 4 4 6 6 3 7 4 9 6 5 9 7 12 17 19 12 10 12 10 13 13 17 18 21
36 34 29 26 23 17 9 2 1 1 2 4 3 2 6 5 5 3 5 3 9 7 6 5 8 7 4 6 6 10 7 17 18 25 23 22 23 21 19 17 20 20 21 19
35 31 27 26 24 26 7 5 3 1 3 2 4 3 5 8 3 6 5 5 7 7 5 7 6 7 8 13 8 10 8 15 16 25 22 25 27 22 22 23 21 21 20 21
35 30 26 22 23 23 6 5 3 1 4 4 2 3 3 5 5 2 1 2 3 6 8 6 7 8 9 11 10 15 15 14 14 23 20 16 17 11 6 6 3 4 11 7
32 29 23 19 18 16 9 7 5 3 3 6 5 3 4 5 5 2 4 2 2 1 2 4 5 8 12 14 16 13 13 15 13 16 17 21 4 6 5 5 2 3 1 4
31 27 23 21 15 13 11 11 5 2 3 3 6 4 2 3 3 1 1 2 3 1 1 3 6 4 4 3 1 2 7 10 8 11 13 10 4 5 5 5 1 4 2 4
32 27 24 19 15 15 19 16 11 5 4 3 4 2 2 2 2 3 3 3 1 1 2 3 4 4 4 3 2 2 3 2 6 10 13 18 5 7 5 4 5 3 4 6
30 24 20 18 19 16 17 10 12 8 4 5 5 3 2 2 2 1 1 4 1 2 3 5 6 7 1 4 3 3 4 2 4 8 9 3 7 9 4 4 3 8 7 7
26 21 17 18 20 17 16 11 9 9 4 9 11 6 4 2 2 1 3 2 1 2 3 3 3 3 2 2 0 1 2 3 2 2 4 6 10 2 3 6 7 8 8 8
21 18 18 21 20 16 17 11 21 23 13 6 19 24 18 6 4 2 2 2 1 2 2 2 2 3 2 0 6 2 2 2 3 4 3 2 3 1 3 5 8 7 9 10
18 18 19 19 18 15 11 23 22 21 8 7 5 5 14 21 12 3 2 1 2 2 2 1 1 2 2 3 1 2 3 2 3 3 4 4 6 0 6 7 9 9 12 11
18 21 29 26 20 18 25 21 14 12 9 4 5 5 7 14 17 11 2 2 2 2 2 2 2 1 3 1 2 2 1 3 2 5 2 8 2 5 9 10 12 12 15 16
33 30 25 23 23 26 28 27 21 11 6 4 5 5 12 7 14 17 14 8 4 2 2 3 2 2 1 2 1 1 1 1 2 3 2 5 10 9 15 12 12 15 14 16
34 32 31 27 24 23 12 5 19 17 11 4 3 4 13 14 10 12 14 10 8 3 3 3 2 2 0 1 2 1 3 5 7 5 5 10 12 15 13 8 17 20 18 18
32 31 28 18 13 13 13 4 5 6 7 3 4 2 6 14 4 3 6 11 5 3 2 3 2 3 2 0 2 2 6 7 9 12 7 9 8 10 18 21 23 24 24 23
35 34 32 30 30 26 27 30 9 10 13 9 3 2 1 14 4 4 9 3 3 5 2 1 2 1 1 2 4 6 7 9 11 6 9 11 18 19 20 20 19 15 14 20
34 31 21 16 15 8 5 7 25 30 13 4 4 4 3 13 5 4 4 3 3 1 2 2 2 1 1 3 6 7 9 6 11 12 15 16 13 14 17 18 18 14 14 19
16 6 8 4 5 6 3 4 8 11 9 7 3 4 3 5 5 4 3 2 2 1 3 3 1 2 3 6 8 8 9 12 12 11 14 15 17 15 16 14 19 19 21 22
5 6 3 5 6 4 7 4 6 5 5 4 3 3 4 5 3 3 3 2 2 1 2 3 1 3 4 6 8 15 18 17 18 19 22 23 23 18 17 21 25 24 24 23
11 19 11 6 10 5 8 4 4 6 3 4 4 4 3 3 3 2 3 2 1 1 4 2 2 3 6 6 10 16 19 20 20 20 22 25 25 25 26 26 26 27 27 27
10 8 6 5 6 12 7 6 3 3 4 3 5 4 3 3 2 1 2 2 1 3 1 2 4 3 7 9 10 19 21 21 22 24 25 25 27 28 27 27 28 27 27 27
6 5 8 5 5 4 1 1 2 3 3 6 6 2 2 2 2 1 2 1 2 2 2 4 2 6 11 14 20 18 18 24 24 26 26 27 28 27 28 27 27 26 26 27
5 5 6 5 0 1 1 2 3 2 4 4 2 1 2 2 1 2 2 2 3 3 4 4 6 15 16 16 17 19 21 22 23 25 24 26 26 25 27 28 26 26 26 27
5 7 4 2 0 2 2 1 2 2 3 1 0 1 2 4 1 2 1 1 3 3 4 10 14 17 17 16 23 25 27 27 27 27 27 28 27 26 28 29 28 27 26 27
5 4 3 2 1 2 2 2 3 4 1 1 0 4 2 2 2 2 3 4 5 11 14 12 14 17 17 27 27 28 28 28 28 28 28 28 29 28 26 24 28 26 25 25
Wind_Direction
208 205 208 207 202 192 139 81 270 29 140 177 208 214 191 139 157 137 178 183 224 210 179 203 219 222 232 160 153 172 150 239 255 256 102 355 312 252 236 238 240 243 273 266
207 203 198 189 189 182 138 144 272 10 109 227 207 142 181 208 166 203 178 186 215 179 185 233 214 197 123 160 169 187 171 210 286 244 159 167 234 211 231 257 270 259 263 272
203 195 184 181 184 179 155 107 246 119 108 320 180 166 193 191 210 181 180 148 142 165 203 223 236 202 192 187 219 190 178 224 237 259 274 297 253 235 222 231 254 263 251 266
196 191 181 175 172 175 127 79 203 34 213 209 157 169 164 175 198 199 195 185 215 186 208 220 231 235 251 213 225 249 261 261 261 262 266 269 269 261 254 230 250 250 264 266
188 180 174 165 163 162 114 140 168 164 114 108 140 187 206 205 185 168 211 223 198 187 209 229 247 261 260 265 264 256 241 270 273 274 276 273 271 260 254 253 253 268 263 269
179 170 163 160 156 161 128 141 115 200 139 116 148 211 185 208 180 148 81 178 197 218 249 262 270 264 261 255 248 260 259 268 270 272 283 289 284 286 299 318 20 320 270 326
164 154 155 156 152 156 108 128 127 98 179 181 196 201 196 186 193 141 128 115 169 52 353 286 256 251 255 253 252 246 264 265 270 274 283 265 342 40 13 297 31 352 351 16
151 150 147 140 144 153 126 130 114 136 126 149 144 124 116 97 54 67 300 63 47 12 330 281 292 242 241 239 51 281 251 257 263 261 263 279 145 26 17 5 24 15 358 351
141 143 138 140 140 128 128 110 110 99 131 58 348 98 39 140 135 151 117 71 7 205 246 248 255 269 339 267 256 72 49 23 264 280 282 277 47 346 333 308 249 42 350 336
135 138 138 138 135 136 136 116 133 101 98 27 357 86 76 42 50 64 54 360 21 353 234 249 264 266 38 257 252 336 313 331 268 279 279 101 357 323 306 228 24 330 341 332
132 132 136 144 139 145 141 92 122 110 91 40 46 47 57 70 20 341 27 241 123 220 228 249 238 248 175 227 134 274 288 301 264 236 251 246 2 138 305 349 321 330 328 325
125 128 143 143 129 137 142 93 91 98 81 109 87 67 54 50 39 352 8 17 327 9 262 214 258 231 212 270 282 163 236 295 310 243 337 16 354 358 333 319 313 320 315 314
129 140 135 128 126 138 144 112 108 90 107 84 60 26 32 43 38 10 300 113 335 77 353 12 62 217 291 248 183 133 167 83 246 313 179 270 295 339 329 328 306 313 310 315
130 130 113 108 114 126 133 112 105 96 108 100 48 52 39 35 39 41 358 272 297 81 27 64 58 127 356 64 48 275 12 316 305 266 278 313 207 327 325 314 304 305 310 308
117 109 108 111 120 128 111 87 70 84 94 109 121 76 25 32 41 47 51 65 68 48 77 56 67 71 77 67 116 204 345 282 262 290 318 272 284 305 307 300 294 305 305 303
102 103 106 107 115 116 104 76 46 58 93 104 103 124 24 18 39 45 45 49 52 67 68 68 60 2 333 203 246 173 247 252 252 270 286 281 282 291 285 279 294 292 288 286
105 102 96 103 103 91 57 48 325 45 94 91 112 91 20 355 356 26 29 43 56 61 75 57 42 26 30 150 256 307 302 288 283 274 283 272 262 286 295 289 285 288 288 286
105 99 93 90 89 85 55 39 74 75 84 55 71 12 53 6 7 14 8 30 39 35 78 84 30 59 0 256 255 283 280 289 284 264 227 261 281 287 283 282 283 282 281 285
108 104 95 81 47 49 30 31 52 61 63 92 64 9 349 347 21 19 357 354 63 50 55 39 294 319 261 254 281 280 284 267 281 291 287 281 271 274 278 283 285 282 281 283
116 86 50 62 29 358 26 14 25 29 28 42 64 352 356 346 343 3 340 19 37 46 47 314 4 264 269 253 236 249 268 272 275 286 292 295 289 288 289 285 281 278 279 282
65 63 69 84 58 53 42 54 39 360 47 22 10 15 337 11 347 344 26 358 1 8 23 323 306 255 235 236 240 254 266 276 271 257 263 275 276 278 282 286 286 285 285 283
99 115 103 62 30 44 67 32 16 37 40 356 350 342 325 320 334 313 21 1 344 320 333 296 257 246 244 255 256 266 282 284 281 280 279 283 283 282 281 281 282 283 284 285
85 60 55 22 340 45 46 7 19 21 354 19 342 326 344 319 15 57 340 3 359 303 304 267 247 277 271 270 287 298 298 291 287 288 287 285 284 285 281 280 280 282 282 282
55 47 37 51 22 57 69 236 275 296 288 324 329 288 333 346 353 342 342 45 279 295 293 246 249 263 297 308 303 301 299 298 294 292 291 288 286 284 285 282 280 280 278 280
67 48 51 55 50 273 285 285 289 263 309 321 288 241 322 9 29 22 295 324 319 238 256 280 309 310 307 304 305 302 298 297 293 290 287 284 284 283 282 283 282 279 277 277
74 50 75 82 74 7 337 302 284 293 320 201 221 352 40 48 341 338 54 327 250 277 266 300 307 305 303 302 302 301 299 295 293 291 289 287 285 283 282 286 283 278 275 273
55 40 30 64 109 265 288 283 303 320 292 20 316 44 343 282 295 289 189 230 273 301 300 298 294 297 302 303 301 300 299 298 296 294 292 289 290 289 285 282 283 282 277 272